• In Austria
  • List of Countries
  • For 7 days
  • Water Temperature
  • Satellite Maps
  • Weather Map
  • News
  • Weather Widgets
  • user-avatar
    Login

    Hourly Weather La Massana

    Today, 26 September, Wednesday

    Time Temperature Precipitation Wind Pressure Humidity
    00:00 +7°C° 0 mm 2 mps 619 mmHg 89%
    01:00 +7°C° 0 mm 2 mps 619 mmHg 89%
    02:00 +7°C° 0 mm 2 mps 619 mmHg 88%
    03:00 +6°C° 0 mm 2 mps 619 mmHg 88%
    04:00 +6°C° 0 mm 2 mps 619 mmHg 87%
    05:00 +6°C° 0 mm 2 mps 619 mmHg 87%
    06:00 +6°C° 0 mm 1 mps 619 mmHg 86%
    07:00 +8°C° 0 mm 1 mps 620 mmHg 77%
    08:00 +10°C° 0 mm 2 mps 621 mmHg 69%
    09:00 +13°C° 0 mm 2 mps 622 mmHg 60%
    10:00 +13°C° 0 mm 3 mps 623 mmHg 56%
    11:00 +16°C° 0 mm 3 mps 623 mmHg 52%
    12:00 +17°C° 0 mm 3 mps 624 mmHg 48%
    13:00 +17°C° 0 mm 3 mps 624 mmHg 49%
    14:00 +17°C° 0 mm 3 mps 624 mmHg 49%
    15:00 +17°C° 0 mm 3 mps 623 mmHg 50%
    16:00 +13°C° 0 mm 3 mps 623 mmHg 59%
    17:00 +12°C° 0 mm 2 mps 622 mmHg 67%
    18:00 +9°C° 0 mm 2 mps 621 mmHg 76%
    19:00 +8°C° 0 mm 2 mps 621 mmHg 79%
    20:00 +9°C° 0 mm 1 mps 621 mmHg 81%
    21:00 +8°C° 0 mm 1 mps 621 mmHg 84%
    22:00 +8°C° 0 mm 1 mps 620 mmHg 84%
    23:00 +7°C° 0 mm 1 mps 620 mmHg 84%

    Tomorrow, 27 September, Thursday

    Time Temperature Precipitation Wind Pressure Humidity
    00:00 +7°C° 0 mm 1 mps 620 mmHg 84%
    01:00 +7°C° 0 mm 1 mps 620 mmHg 82%
    02:00 +7°C° 0 mm 1 mps 619 mmHg 80%
    03:00 +7°C° 0 mm 1 mps 619 mmHg 79%
    04:00 +7°C° 0 mm 1 mps 619 mmHg 74%
    05:00 +7°C° 0 mm 1 mps 619 mmHg 70%
    06:00 +6°C° 0 mm 1 mps 619 mmHg 65%
    07:00 +9°C° 0 mm 1 mps 620 mmHg 56%
    08:00 +13°C° 0 mm 1 mps 622 mmHg 47%
    09:00 +16°C° 0 mm 1 mps 623 mmHg 37%
    10:00 +18°C° 0 mm 1 mps 623 mmHg 35%
    11:00 +18°C° 0 mm 2 mps 623 mmHg 33%
    12:00 +19°C° 0 mm 2 mps 624 mmHg 31%
    13:00 +19°C° 0 mm 2 mps 623 mmHg 32%
    14:00 +19°C° 0 mm 2 mps 623 mmHg 34%
    15:00 +19°C° 0 mm 2 mps 622 mmHg 36%
    16:00 +16°C° 0 mm 1 mps 621 mmHg 46%
    17:00 +14°C° 0 mm 1 mps 620 mmHg 56%
    18:00 +11°C° 0 mm 1 mps 618 mmHg 66%
    19:00 +10°C° 0 mm 1 mps 618 mmHg 68%
    20:00 +10°C° 0 mm 1 mps 618 mmHg 70%
    21:00 +10°C° 0 mm 1 mps 618 mmHg 72%
    22:00 +9°C° 0 mm 1 mps 618 mmHg 72%
    23:00 +9°C° 0 mm 1 mps 617 mmHg 71%

    Day after tomorrow, 28 September, Friday

    Time Temperature Precipitation Wind Pressure Humidity
    00:00 +8°C° 0 mm 2 mps 617 mmHg 71%
    01:00 +8°C° 0 mm 2 mps 616 mmHg 68%
    02:00 +8°C° 0 mm 2 mps 616 mmHg 65%
    03:00 +8°C° 0 mm 2 mps 616 mmHg 62%
    04:00 +7°C° 0 mm 2 mps 615 mmHg 62%
    05:00 +7°C° 0 mm 2 mps 615 mmHg 62%
    06:00 +7°C° 0 mm 2 mps 615 mmHg 62%
    07:00 +10°C° 0 mm 2 mps 616 mmHg 56%
    08:00 +14°C° 0 mm 2 mps 617 mmHg 50%
    09:00 +16°C° 0 mm 1 mps 619 mmHg 44%
    10:00 +18°C° 0 mm 2 mps 619 mmHg 41%
    11:00 +19°C° 0 mm 2 mps 619 mmHg 38%
    12:00 +20°C° 0 mm 2 mps 619 mmHg 35%
    13:00 +19°C° 0 mm 2 mps 618 mmHg 36%
    14:00 +19°C° 0 mm 2 mps 618 mmHg 37%
    15:00 +19°C° 0 mm 2 mps 617 mmHg 38%
    16:00 +17°C° 0 mm 2 mps 616 mmHg 47%
    17:00 +15°C° 0 mm 2 mps 615 mmHg 55%
    18:00 +12°C° 0 mm 2 mps 614 mmHg 63%
    19:00 +12°C° 0 mm 2 mps 614 mmHg 65%
    20:00 +10°C° 0 mm 2 mps 614 mmHg 68%
    21:00 +9°C° 0 mm 2 mps 614 mmHg 70%
    22:00 +9°C° 0 mm 2 mps 614 mmHg 71%
    23:00 +9°C° 0 mm 2 mps 614 mmHg 72%

    29 September, Saturday

    Time Temperature Precipitation Wind Pressure Humidity
    00:00 +8°C° 0 mm 2 mps 613 mmHg 73%
    01:00 +8°C° 0 mm 2 mps 613 mmHg 74%
    02:00 +8°C° 0 mm 2 mps 613 mmHg 75%
    03:00 +8°C° 0 mm 2 mps 613 mmHg 76%
    04:00 +9°C° 0 mm 1 mps 613 mmHg 76%
    05:00 +8°C° 0 mm 1 mps 612 mmHg 77%
    06:00 +8°C° 0 mm 1 mps 612 mmHg 77%
    07:00 +11°C° 0 mm 1 mps 614 mmHg 68%
    08:00 +14°C° 0 mm 1 mps 615 mmHg 59%
    09:00 +16°C° 0 mm 1 mps 616 mmHg 50%
    10:00 +18°C° 0 mm 1 mps 616 mmHg 47%
    11:00 +18°C° 0 mm 2 mps 616 mmHg 45%
    12:00 +19°C° 0 mm 2 mps 617 mmHg 42%
    13:00 +18°C° 0 mm 2 mps 616 mmHg 45%
    14:00 +18°C° 0 mm 2 mps 616 mmHg 48%
    15:00 +17°C° 0 mm 2 mps 615 mmHg 50%
    16:00 +16°C° 0.1 mm 1 mps 615 mmHg 56%
    17:00 +14°C° 0.1 mm 1 mps 614 mmHg 62%
    18:00 +12°C° 0.1 mm 1 mps 613 mmHg 68%
    19:00 +11°C° 0 mm 1 mps 613 mmHg 70%
    20:00 +11°C° 0 mm 1 mps 614 mmHg 72%
    21:00 +10°C° 0 mm 1 mps 614 mmHg 74%
    22:00 +9°C° 0 mm 1 mps 613 mmHg 75%
    23:00 +9°C° 0 mm 1 mps 613 mmHg 75%

    30 September, Sunday

    Time Temperature Precipitation Wind Pressure Humidity
    00:00 +8°C° 0 mm 1 mps 613 mmHg 75%
    01:00 +8°C° 0 mm 1 mps 613 mmHg 74%
    02:00 +8°C° 0 mm 1 mps 612 mmHg 73%
    03:00 +8°C° 0 mm 1 mps 612 mmHg 72%
    04:00 +8°C° 0 mm 1 mps 612 mmHg 69%
    05:00 +8°C° 0 mm 1 mps 612 mmHg 67%
    06:00 +7°C° 0 mm 1 mps 612 mmHg 65%
    07:00 +10°C° 0 mm 1 mps 614 mmHg 58%
    08:00 +13°C° 0 mm 1 mps 615 mmHg 50%
    09:00 +16°C° 0 mm 1 mps 616 mmHg 43%
    10:00 +18°C° 0 mm 1 mps 616 mmHg 42%
    11:00 +18°C° 0 mm 1 mps 617 mmHg 41%
    12:00 +18°C° 0 mm 2 mps 617 mmHg 40%
    13:00 +17°C° 0.2 mm 2 mps 616 mmHg 45%
    14:00 +16°C° 0.2 mm 1 mps 616 mmHg 50%
    15:00 +16°C° 0.2 mm 1 mps 615 mmHg 56%
    16:00 +14°C° 0.3 mm 1 mps 614 mmHg 61%
    17:00 +13°C° 0.3 mm 1 mps 614 mmHg 67%
    18:00 +11°C° 0.3 mm 1 mps 613 mmHg 72%
    19:00 +11°C° 0.1 mm 1 mps 613 mmHg 75%
    20:00 +10°C° 0.1 mm 1 mps 613 mmHg 77%
    21:00 +9°C° 0.1 mm 1 mps 613 mmHg 79%
    22:00 +9°C° 0 mm 1 mps 613 mmHg 82%
    23:00 +9°C° 0 mm 1 mps 613 mmHg 85%

    1 October, Monday

    Time Temperature Precipitation Wind Pressure Humidity
    00:00 +8°C° 0 mm 1 mps 613 mmHg 87%
    01:00 +7°C° 0.1 mm 2 mps 613 mmHg 88%
    02:00 +7°C° 0.1 mm 2 mps 612 mmHg 89%
    03:00 +6°C° 0.1 mm 2 mps 612 mmHg 90%
    04:00 +6°C° 0 mm 2 mps 612 mmHg 90%
    05:00 +6°C° 0 mm 2 mps 612 mmHg 90%
    06:00 +6°C° 0 mm 2 mps 612 mmHg 90%
    07:00 +7°C° 0 mm 2 mps 613 mmHg 83%
    08:00 +8°C° 0 mm 2 mps 613 mmHg 75%
    09:00 +9°C° 0 mm 2 mps 614 mmHg 68%
    10:00 +10°C° 0 mm 3 mps 614 mmHg 61%
    11:00 +11°C° 0 mm 3 mps 614 mmHg 54%
    12:00 +13°C° 0 mm 3 mps 615 mmHg 47%
    13:00 +12°C° 0.1 mm 3 mps 614 mmHg 47%
    14:00 +12°C° 0.1 mm 3 mps 614 mmHg 48%
    15:00 +11°C° 0.1 mm 4 mps 613 mmHg 49%
    16:00 +9°C° 0.3 mm 3 mps 613 mmHg 54%
    17:00 +7°C° 0.3 mm 3 mps 612 mmHg 59%
    18:00 +4°C° 0.3 mm 3 mps 611 mmHg 64%
    19:00 +3°C° 0.1 mm 3 mps 611 mmHg 66%
    20:00 +2°C° 0.1 mm 3 mps 611 mmHg 68%
    21:00 0°C° 0.1 mm 4 mps 611 mmHg 70%
    22:00 0°C° 0 mm 4 mps 611 mmHg 70%
    23:00 0°C° 0 mm 4 mps 611 mmHg 71%
    Show more